Regional Weather Roundup
Issued by NWS Northern Indiana

Home | Current Version | Previous Version | Text Only | Print | Product List | Glossary On
Versions: 1 2 3 4 5 6 7 8 9 10 11 12 13 14 15 16 17 18 19 20 21 22 23 24 25 26 27 28 29 30 31 32 33 34 35 36 37 38 39 40 41 42 43 44 45 46 47 48 49 50
772
ASUS43 KIWX 272310
RWRIWX

KIWX WEATHER ROUNDUP
NATIONAL WEATHER SERVICE NORTHERN INDIANA
700 PM EDT SAT MAY 27 2017

NOTE: "FAIR" INDICATES FEW OR NO CLOUDS BELOW 12,000 FEET WITH NO
SIGNIFICANT WEATHER AND/OR OBSTRUCTIONS TO VISIBILITY.

* THESE STATIONS ARE NOT UNDER NWS QUALITY CONTROL. THEY ALSO MAY NOT
  REPORT WEATHER SUCH AS PRECIPITATION OR FOG.

INZ001>027-280000-
NORTHERN INDIANA

CITY           SKY/WX    TMP DP  RH WIND       PRES   REMARKS
GARY*          MOSUNNY   64  55  72 NE9       29.89F
VALPARAISO     PTSUNNY   73  62  68 CALM      29.88F
MICHIGAN CITY* SUNNY     66  55  68 N6        29.87F
LAPORTE*       PTSUNNY   73  60  65 CALM      29.86F
KNOX*          MOSUNNY   72  52  49 CALM      29.85F
SOUTH BEND     PTSUNNY   72  61  68 SW5       29.87R
GOSHEN         PTSUNNY   73  60  63 E3        29.86S
MONTICELLO*    CLOUDY    73  62  68 E3        29.85F
LOGANSPORT*    MOSUNNY   70  61  73 CALM      29.88R
ROCHESTER*     SUNNY     75  63  64 CALM      29.87S
WARSAW*        CLOUDY    72  63  73 E5        29.86F
ANGOLA*        PTSUNNY   72  63  73 E7        29.87F
FORT WAYNE     PTSUNNY   74  63  68 NE9       29.86S
HUNTINGTON*    PTSUNNY  N/A N/A N/A NE5       29.84F
PERU/GRISSOM   PTSUNNY   72  62  69 NW5       29.85R
MARION*        CLOUDY    73  61  64 NW6       29.87S

$$
INZ028>050-280000-
CENTRAL INDIANA

CITY           SKY/WX    TMP DP  RH WIND       PRES   REMARKS
LAFAYETTE      CLOUDY    73  63  70 NW3       29.85F
KOKOMO*        CLOUDY    73  62  68 N3        29.88R
MUNCIE*        PTSUNNY   77  64  64 N8        29.85S
INDIANAPOLIS   CLOUDY    76  63  64 NW8       29.84S

$$
MIZ043>046-050>051-056>058-064>065-071>073-077>080-280000-
SOUTHWEST LOWER MICHIGAN

CITY           SKY/WX    TMP DP  RH WIND       PRES   REMARKS
BATTLE CREEK   CLOUDY    73  59  61 VRB5      29.87F
BENTON HARBOR  SUNNY     68  52  56 NW3       29.87R
COLDWATER*     CLOUDY    71  60  69 E6        29.87F
HILLSDALE*     CLOUDY    68  55  64 E5        29.88F
HOLLAND        SUNNY     73  54  51 W6        29.87S
GRAND RAPIDS   MOSUNNY   75  58  55 SE8       29.85F
KALAMAZOO      SUNNY     74  57  55 VRB3      29.86F
STURGIS*       PTSUNNY   71  60  67 SE7       29.86S
THREE RIVERS*  FAIR      73  59  62 E3        29.87S

$$
OHZ001>008-015>018-024>025-280000-
NORTHWEST OHIO

CITY           SKY/WX    TMP DP  RH WIND       PRES   REMARKS
WAUSEON*       CLOUDY    72  55  56 E10       29.87F
DEFIANCE       CLOUDY    72  59  63 NE9       29.87F
FINDLAY        CLOUDY    72  56  57 NE14      29.86S
TOLEDO EXPRESS CLOUDY    70  54  56 E8        29.87F
TOLEDO METCALF SUNNY     71  54  54 E9        29.89S
LIMA           PTSUNNY   73  64  73 NE8       29.86R

$$
AND FOR LAKE MICHIGAN COASTAL AND OPEN LAKE BUOY OBSERVATIONS

STATION/POSITION TEMP    WIND        PRES    VSBY  WAVE
                 AIR SEA DIR/SP/G                  HT/PER
                 (F)     (DEG/KT/KT) (MB)    (MI)  (FT/S)
CALUMET HARBOR    57      50/  6/  7 1011.0F
MICHIGAN CITY     57      10/  3/  3   N/A
BURNS HARBOR      59      60/  8/  9 1012.2F
SOUTH LAKE BUOY   54 52  360/  6/  6 1011.8          0
4 MI NW BRIDGMAN  59 60   40/  6/  8 1011.8          1/ 2
MICHIGAN CITY     56 57   10/  2/  4   N/A           1

$$
&&




USA.gov is the U.S. government's official web portal to all federal, state and local government web resources and services.